EZY57UG EGKK-GCFV

Flight info

Callsign EZY57UG
Flight time N/A
Altitude 35000
Route NOVMA L620 SAM M195 LORKU DCT BALDA DCT ABUPI DCT DIGAL/N0448F370 DCT GAIOS DCT TAKAV DCT VEDOD UN857 TERTO
Aircraft A320/M-SDE3FGHIRWY/LB1

Departure

Time 2026-04-18 07:33
Airport London Gatwick Airport (EGKK)

Arrival

Time N/A
Airport Fuerteventura Airport (GCFV)
Time Latitude Longitude Altitude Speed Heading
2026-04-18 07:19 51.15833 -0.17560 205 ft 0 kts 347°
2026-04-18 07:26 51.15831 -0.17560 205 ft 1 kts 347°
2026-04-18 07:26 51.15816 -0.17554 214 ft 3 kts 347°
2026-04-18 07:27 51.15796 -0.17548 210 ft 3 kts 347°
2026-04-18 07:27 51.15776 -0.17540 213 ft 3 kts 350°
2026-04-18 07:27 51.15762 -0.17537 212 ft 3 kts 46°
2026-04-18 07:27 51.15760 -0.17542 214 ft 2 kts 77°
2026-04-18 07:28 51.15755 -0.17570 215 ft 3 kts 71°
2026-04-18 07:28 51.15750 -0.17596 208 ft 1 kts 77°
2026-04-18 07:28 51.15750 -0.17599 209 ft 0 kts 77°
2026-04-18 07:30 51.15721 -0.17507 208 ft 19 kts 147°
2026-04-18 07:30 51.15571 -0.17454 210 ft 28 kts 167°
2026-04-18 07:30 51.15353 -0.17379 211 ft 23 kts 166°
2026-04-18 07:30 51.15207 -0.17279 208 ft 20 kts 147°
2026-04-18 07:31 51.15195 -0.17095 208 ft 22 kts 76°
2026-04-18 07:31 51.15222 -0.16893 205 ft 7 kts 83°
2026-04-18 07:31 51.15221 -0.16866 206 ft 0 kts 98°
2026-04-18 07:31 51.15221 -0.16865 206 ft 2 kts 99°
2026-04-18 07:32 51.15168 -0.16797 209 ft 19 kts 173°
2026-04-18 07:32 51.15110 -0.16909 216 ft 18 kts 251°
2026-04-18 07:32 51.15046 -0.17407 209 ft 78 kts 257°
2026-04-18 07:32 51.14885 -0.18539 206 ft 128 kts 258°
2026-04-18 07:33 51.14659 -0.20154 284 ft 165 kts 258°
2026-04-18 07:33 51.14424 -0.21880 969 ft 161 kts 259°
2026-04-18 07:33 51.14170 -0.23733 1248 ft 182 kts 259°
2026-04-18 07:33 51.13883 -0.25818 1450 ft 203 kts 259°
2026-04-18 07:34 51.13563 -0.28141 1623 ft 226 kts 259°
2026-04-18 07:34 51.13210 -0.30683 1909 ft 241 kts 259°
2026-04-18 07:34 51.12844 -0.33310 2450 ft 244 kts 259°
2026-04-18 07:34 51.12474 -0.35962 2782 ft 245 kts 259°
2026-04-18 07:35 51.12103 -0.38619 3204 ft 246 kts 258°
2026-04-18 07:35 51.11732 -0.41274 3601 ft 240 kts 258°
2026-04-18 07:35 51.11282 -0.43596 3993 ft 207 kts 245°
2026-04-18 07:35 51.10686 -0.45476 4335 ft 175 kts 245°
2026-04-18 07:36 51.10140 -0.47225 3923 ft 184 kts 246°
2026-04-18 07:36 51.09527 -0.49238 3805 ft 222 kts 246°
2026-04-18 07:36 51.08790 -0.51644 4232 ft 260 kts 245°
2026-04-18 07:36 51.08002 -0.54178 4627 ft 251 kts 245°
2026-04-18 07:37 51.07229 -0.56646 5045 ft 248 kts 245°
2026-04-18 07:37 51.06461 -0.59098 5452 ft 248 kts 244°
2026-04-18 07:37 51.05693 -0.61555 5856 ft 248 kts 245°
2026-04-18 07:37 51.05168 -0.64162 6279 ft 248 kts 257°
2026-04-18 07:38 51.04816 -0.66853 6687 ft 249 kts 257°
2026-04-18 07:38 51.04455 -0.69551 7090 ft 250 kts 257°
2026-04-18 07:38 51.04091 -0.72268 7488 ft 251 kts 257°
2026-04-18 07:38 51.03723 -0.74992 7887 ft 253 kts 257°
2026-04-18 07:39 51.03352 -0.77733 8298 ft 255 kts 257°
2026-04-18 07:39 51.02978 -0.80488 8714 ft 256 kts 257°
2026-04-18 07:39 51.02600 -0.83268 9125 ft 258 kts 257°
2026-04-18 07:39 51.02219 -0.86059 9556 ft 260 kts 257°
2026-04-18 07:40 51.01834 -0.88878 9987 ft 262 kts 257°
2026-04-18 07:40 51.01447 -0.91713 10393 ft 266 kts 257°
2026-04-18 07:40 51.01041 -0.94668 10792 ft 281 kts 257°
2026-04-18 07:40 51.00612 -0.97788 11195 ft 296 kts 257°
2026-04-18 07:41 51.00165 -1.01061 11599 ft 310 kts 257°
2026-04-18 07:41 50.99697 -1.04475 12057 ft 321 kts 257°
2026-04-18 07:41 50.99214 -1.07980 12575 ft 329 kts 256°
2026-04-18 07:41 50.98723 -1.11546 13099 ft 333 kts 256°